Location: Asheville, NC
(35.6000°N, 82.5500°W)
Time: 15:45:32
(UTC-04:00)

XW-2D - Pass Details

Date: 04 January 2018
Orbit: 511 x 528 km, 97.5° (Epoch: 15 July)

Event Time Altitude Azimuth Distance (km) Brightness Sun altitude
Rises 16:34:27 0° 115° (ESE) 2,654 ? 8.8°
Reaches altitude 10° 18:08:48 10° 183° (S) 1,762 ? -7.9°
Maximum altitude 18:12:31 52° 260° (W) 662 ? -8.6°
Drops below altitude 10° 18:16:16 10° 338° (NNW) 1,779 ? -9.3°
Sets 18:18:26 0° 343° (NNW) 2,673 ? -9.7°
